UAL2278 KSAN-KSFO

Flight info

Callsign UAL2278
Flight time 1h 6m
Altitude 36000
Route PADRZ2 IKAYE RIZIN SPLNT STOKD SERFR SERFR4
Aircraft A320/M-SDE3FGHIRWY/LB1

Departure

Time 2026-04-26 01:43
Airport San Diego International Airport (KSAN)

Arrival

Time 2026-04-26 02:50
Airport San Francisco International Airport (KSFO)
Time Latitude Longitude Altitude Speed Heading
2026-04-26 01:18 32.73456 -117.20449 21 ft 0 kts 134°
2026-04-26 01:32 32.73470 -117.20465 21 ft 4 kts 132°
2026-04-26 01:32 32.73486 -117.20490 20 ft 4 kts 125°
2026-04-26 01:32 32.73497 -117.20517 21 ft 4 kts 86°
2026-04-26 01:32 32.73488 -117.20542 21 ft 2 kts 41°
2026-04-26 01:33 32.73487 -117.20544 20 ft 0 kts 41°
2026-04-26 01:35 32.73487 -117.20543 19 ft 1 kts 45°
2026-04-26 01:35 32.73527 -117.20491 19 ft 12 kts 50°
2026-04-26 01:35 32.73583 -117.20408 18 ft 14 kts 59°
2026-04-26 01:36 32.73578 -117.20304 21 ft 12 kts 105°
2026-04-26 01:36 32.73556 -117.20209 23 ft 12 kts 105°
2026-04-26 01:36 32.73532 -117.20105 24 ft 14 kts 105°
2026-04-26 01:37 32.73469 -117.19860 24 ft 17 kts 107°
2026-04-26 01:37 32.73435 -117.19719 23 ft 19 kts 106°
2026-04-26 01:37 32.73401 -117.19573 25 ft 15 kts 106°
2026-04-26 01:37 32.73371 -117.19448 23 ft 17 kts 107°
2026-04-26 01:38 32.73335 -117.19302 20 ft 20 kts 108°
2026-04-26 01:38 32.73295 -117.19136 21 ft 22 kts 106°
2026-04-26 01:38 32.73253 -117.18961 22 ft 23 kts 106°
2026-04-26 01:38 32.73219 -117.18818 24 ft 15 kts 106°
2026-04-26 01:39 32.73190 -117.18699 24 ft 16 kts 106°
2026-04-26 01:39 32.73156 -117.18559 21 ft 19 kts 106°
2026-04-26 01:39 32.73116 -117.18393 21 ft 22 kts 106°
2026-04-26 01:39 32.73091 -117.18289 21 ft 14 kts 106°
2026-04-26 01:40 32.73059 -117.18159 21 ft 18 kts 107°
2026-04-26 01:40 32.73020 -117.18002 17 ft 21 kts 106°
2026-04-26 01:40 32.72985 -117.17856 18 ft 15 kts 106°
2026-04-26 01:40 32.72958 -117.17747 15 ft 9 kts 106°
2026-04-26 01:41 32.72952 -117.17674 16 ft 9 kts 78°
2026-04-26 01:41 32.72953 -117.17667 16 ft 0 kts 78°
2026-04-26 01:41 32.72964 -117.17621 18 ft 12 kts 72°
2026-04-26 01:42 32.73023 -117.17601 18 ft 11 kts 303°
2026-04-26 01:42 32.73037 -117.17647 18 ft 0 kts 285°
2026-04-26 01:43 32.73038 -117.17651 17 ft 3 kts 285°
2026-04-26 01:43 32.73107 -117.17945 17 ft 83 kts 286°
2026-04-26 01:43 32.73348 -117.18898 28 ft 154 kts 287°
2026-04-26 01:43 32.73696 -117.20150 681 ft 169 kts 290°
2026-04-26 01:44 32.74378 -117.21418 1366 ft 194 kts 306°
2026-04-26 01:44 32.75323 -117.22674 2048 ft 213 kts 308°
2026-04-26 01:44 32.76313 -117.24084 2530 ft 233 kts 303°
2026-04-26 01:44 32.77141 -117.25816 3107 ft 248 kts 296°
2026-04-26 01:45 32.77973 -117.27643 3966 ft 254 kts 296°
2026-04-26 01:45 32.78823 -117.29496 4962 ft 257 kts 297°
2026-04-26 01:45 32.79691 -117.31366 5932 ft 260 kts 300°
2026-04-26 01:45 32.80766 -117.33116 6856 ft 264 kts 305°
2026-04-26 01:46 32.81894 -117.34851 7722 ft 268 kts 305°
2026-04-26 01:46 32.83044 -117.36623 8569 ft 272 kts 304°
2026-04-26 01:46 32.84202 -117.38413 9454 ft 275 kts 303°
2026-04-26 01:46 32.85379 -117.40239 10239 ft 281 kts 302°
2026-04-26 01:47 32.86614 -117.42165 10526 ft 303 kts 302°
2026-04-26 01:47 32.87915 -117.44196 11044 ft 313 kts 302°
2026-04-26 01:47 32.89251 -117.46273 11733 ft 318 kts 302°
2026-04-26 01:47 32.90606 -117.48378 12450 ft 322 kts 302°
2026-04-26 01:48 32.91972 -117.50499 13170 ft 325 kts 301°
2026-04-26 01:48 32.93358 -117.52655 13872 ft 329 kts 301°
2026-04-26 01:48 32.94756 -117.54831 14514 ft 332 kts 301°
2026-04-26 01:48 32.96168 -117.57028 14869 ft 334 kts 301°
2026-04-26 01:49 32.97600 -117.59254 14964 ft 334 kts 301°
2026-04-26 01:49 32.99010 -117.61445 14976 ft 333 kts 301°
2026-04-26 01:49 33.00420 -117.63639 14993 ft 333 kts 301°
2026-04-26 01:49 33.01829 -117.65836 14979 ft 333 kts 301°
2026-04-26 01:50 33.03233 -117.68031 14985 ft 333 kts 301°
2026-04-26 01:50 33.04633 -117.70222 14984 ft 333 kts 301°
2026-04-26 01:50 33.06054 -117.72406 14982 ft 335 kts 305°
2026-04-26 01:50 33.07751 -117.74349 14976 ft 341 kts 313°
2026-04-26 01:51 33.09559 -117.76179 14967 ft 341 kts 313°
2026-04-26 01:51 33.11364 -117.78011 14974 ft 341 kts 313°
2026-04-26 01:51 33.13166 -117.79843 14980 ft 341 kts 313°
2026-04-26 01:51 33.14967 -117.81678 14978 ft 341 kts 313°
2026-04-26 01:52 33.16775 -117.83528 15289 ft 344 kts 313°
2026-04-26 01:52 33.18597 -117.85394 15990 ft 346 kts 313°
2026-04-26 01:52 33.20400 -117.87300 16651 ft 347 kts 311°
2026-04-26 01:52 33.22147 -117.89299 17277 ft 349 kts 309°
2026-04-26 01:53 33.23862 -117.91356 17889 ft 353 kts 308°
2026-04-26 01:53 33.25584 -117.93460 18463 ft 356 kts 308°
2026-04-26 01:53 33.27323 -117.95590 19021 ft 359 kts 307°
2026-04-26 01:53 33.29081 -117.97726 19619 ft 362 kts 307°
2026-04-26 01:54 33.30858 -117.99871 20221 ft 364 kts 306°
2026-04-26 01:54 33.32649 -118.02020 20812 ft 366 kts 306°
2026-04-26 01:54 33.34455 -118.04178 21399 ft 368 kts 306°
2026-04-26 01:54 33.36272 -118.06349 21965 ft 370 kts 305°
2026-04-26 01:55 33.38099 -118.08534 22561 ft 373 kts 304°
2026-04-26 01:55 33.39938 -118.10736 23105 ft 376 kts 304°
2026-04-26 01:55 33.41792 -118.12957 23663 ft 378 kts 304°
2026-04-26 01:55 33.43657 -118.15191 24138 ft 381 kts 304°
2026-04-26 01:56 33.45562 -118.17474 24620 ft 383 kts 304°
2026-04-26 01:56 33.47448 -118.19740 25083 ft 385 kts 304°
2026-04-26 01:56 33.49338 -118.22013 25532 ft 387 kts 304°
2026-04-26 01:56 33.51244 -118.24304 25979 ft 389 kts 304°
2026-04-26 01:57 33.53161 -118.26610 26418 ft 391 kts 304°
2026-04-26 01:57 33.55084 -118.28930 26848 ft 393 kts 304°
2026-04-26 01:57 33.57020 -118.31264 27269 ft 396 kts 304°
2026-04-26 01:57 33.58971 -118.33619 27635 ft 399 kts 304°
2026-04-26 01:58 33.60937 -118.35996 28050 ft 402 kts 304°
2026-04-26 01:58 33.62909 -118.38380 28479 ft 404 kts 305°
2026-04-26 01:58 33.64888 -118.40772 28886 ft 406 kts 305°
2026-04-26 01:58 33.66882 -118.43182 29283 ft 408 kts 305°
2026-04-26 01:59 33.68888 -118.45606 29676 ft 410 kts 305°
2026-04-26 01:59 33.70902 -118.48042 30057 ft 412 kts 305°
2026-04-26 01:59 33.72921 -118.50491 30376 ft 414 kts 305°
2026-04-26 01:59 33.74960 -118.52966 30674 ft 418 kts 305°
2026-04-26 02:00 33.77012 -118.55460 30969 ft 420 kts 305°
2026-04-26 02:00 33.79072 -118.57963 31277 ft 423 kts 305°
2026-04-26 02:00 33.81175 -118.60519 31574 ft 425 kts 305°
2026-04-26 02:00 33.83265 -118.63058 31877 ft 428 kts 305°
2026-04-26 02:01 33.85330 -118.65567 32278 ft 427 kts 305°
2026-04-26 02:01 33.87443 -118.68135 32752 ft 426 kts 305°
2026-04-26 02:01 33.89527 -118.70665 33202 ft 425 kts 305°
2026-04-26 02:01 33.91602 -118.73191 33665 ft 424 kts 305°
2026-04-26 02:02 33.93670 -118.75714 34040 ft 424 kts 305°
2026-04-26 02:02 33.95743 -118.78253 34367 ft 424 kts 305°
2026-04-26 02:02 33.97810 -118.80788 34701 ft 424 kts 305°
2026-04-26 02:02 33.99871 -118.83315 35031 ft 423 kts 305°
2026-04-26 02:03 34.01937 -118.85845 35348 ft 423 kts 305°
2026-04-26 02:03 34.03994 -118.88365 35667 ft 422 kts 305°
2026-04-26 02:03 34.06054 -118.90891 35912 ft 423 kts 305°
2026-04-26 02:04 34.10128 -118.95880 35989 ft 414 kts 306°
2026-04-26 02:04 34.14081 -119.00876 35966 ft 407 kts 300°
2026-04-26 02:05 34.17134 -119.06513 35958 ft 400 kts 294°
2026-04-26 02:05 34.20077 -119.12218 35961 ft 400 kts 294°
2026-04-26 02:06 34.23022 -119.17928 35966 ft 400 kts 294°
2026-04-26 02:06 34.25486 -119.22716 35985 ft 401 kts 294°
2026-04-26 02:07 34.28437 -119.28451 35983 ft 402 kts 295°
2026-04-26 02:07 34.31393 -119.34205 35974 ft 403 kts 295°
2026-04-26 02:08 34.34345 -119.39978 35975 ft 404 kts 295°
2026-04-26 02:08 34.37292 -119.45764 35975 ft 404 kts 295°
2026-04-26 02:09 34.40243 -119.51554 35981 ft 405 kts 296°
2026-04-26 02:09 34.43989 -119.56784 35978 ft 416 kts 308°
2026-04-26 02:10 34.48092 -119.61794 35972 ft 416 kts 307°
2026-04-26 02:10 34.52153 -119.66797 35962 ft 417 kts 307°
2026-04-26 02:11 34.56208 -119.71809 35955 ft 416 kts 307°
2026-04-26 02:11 34.60264 -119.76822 35955 ft 416 kts 307°
2026-04-26 02:12 34.64314 -119.81831 35961 ft 416 kts 307°
2026-04-26 02:12 34.68372 -119.86854 35978 ft 416 kts 308°
2026-04-26 02:13 34.72422 -119.91872 35976 ft 416 kts 308°
2026-04-26 02:13 34.76472 -119.96902 35981 ft 416 kts 308°
2026-04-26 02:14 34.80512 -120.01934 35988 ft 416 kts 308°
2026-04-26 02:14 34.84564 -120.06976 35988 ft 417 kts 308°
2026-04-26 02:15 34.88619 -120.12033 35988 ft 417 kts 308°
2026-04-26 02:15 34.92657 -120.17090 36005 ft 416 kts 308°
2026-04-26 02:16 34.96692 -120.22147 35999 ft 416 kts 308°
2026-04-26 02:16 35.00737 -120.27199 35995 ft 416 kts 308°
2026-04-26 02:17 35.04802 -120.32294 35992 ft 416 kts 308°
2026-04-26 02:17 35.08835 -120.37361 36001 ft 417 kts 309°
2026-04-26 02:18 35.13040 -120.42260 36001 ft 419 kts 312°
2026-04-26 02:18 35.17391 -120.47019 35988 ft 419 kts 313°
2026-04-26 02:19 35.21726 -120.51779 35982 ft 419 kts 312°
2026-04-26 02:19 35.26015 -120.56588 35989 ft 419 kts 312°
2026-04-26 02:20 35.30295 -120.61433 35981 ft 419 kts 312°
2026-04-26 02:20 35.34593 -120.66273 35977 ft 420 kts 312°
2026-04-26 02:21 35.38894 -120.71120 35979 ft 420 kts 312°
2026-04-26 02:21 35.43199 -120.75974 35979 ft 420 kts 312°
2026-04-26 02:22 35.47494 -120.80842 35985 ft 421 kts 312°
2026-04-26 02:22 35.52129 -120.85329 35984 ft 425 kts 318°
2026-04-26 02:23 35.56850 -120.89698 36000 ft 426 kts 318°
2026-04-26 02:23 35.61578 -120.94088 35987 ft 426 kts 318°
2026-04-26 02:24 35.66304 -120.98498 35984 ft 427 kts 318°
2026-04-26 02:24 35.71034 -121.02910 35986 ft 427 kts 318°
2026-04-26 02:25 35.75774 -121.07326 35877 ft 432 kts 319°
2026-04-26 02:25 35.78202 -121.09592 35627 ft 433 kts 319°
2026-04-26 02:25 35.80601 -121.11831 35385 ft 432 kts 319°
2026-04-26 02:25 35.82992 -121.14064 35145 ft 431 kts 319°
2026-04-26 02:26 35.85375 -121.16289 34910 ft 429 kts 319°
2026-04-26 02:26 35.87753 -121.18509 34670 ft 427 kts 319°
2026-04-26 02:26 35.90114 -121.20718 34426 ft 424 kts 319°
2026-04-26 02:26 35.92454 -121.22909 33999 ft 422 kts 320°
2026-04-26 02:27 35.94788 -121.25096 33480 ft 420 kts 320°
2026-04-26 02:27 35.97102 -121.27272 33020 ft 417 kts 320°
2026-04-26 02:27 35.99398 -121.29437 32559 ft 413 kts 320°
2026-04-26 02:27 36.01673 -121.31588 32109 ft 410 kts 321°
2026-04-26 02:28 36.03932 -121.33721 31658 ft 408 kts 321°
2026-04-26 02:28 36.06182 -121.35843 31216 ft 405 kts 322°
2026-04-26 02:28 36.08517 -121.37773 30781 ft 404 kts 328°
2026-04-26 02:28 36.10894 -121.39620 30353 ft 401 kts 328°
2026-04-26 02:29 36.13246 -121.41457 29912 ft 399 kts 329°
2026-04-26 02:29 36.15584 -121.43284 29475 ft 396 kts 328°
2026-04-26 02:29 36.17907 -121.45097 29057 ft 393 kts 329°
2026-04-26 02:29 36.20210 -121.46895 28668 ft 390 kts 328°
2026-04-26 02:30 36.22496 -121.48682 28270 ft 387 kts 329°
2026-04-26 02:30 36.24763 -121.50456 27890 ft 385 kts 328°
2026-04-26 02:30 36.27019 -121.52223 27491 ft 383 kts 328°
2026-04-26 02:30 36.29268 -121.53985 27088 ft 382 kts 329°
2026-04-26 02:31 36.31501 -121.55737 26680 ft 380 kts 328°
2026-04-26 02:31 36.33739 -121.57493 26256 ft 379 kts 329°
2026-04-26 02:31 36.35970 -121.59242 25840 ft 378 kts 329°
2026-04-26 02:31 36.38192 -121.60987 25400 ft 378 kts 329°
2026-04-26 02:32 36.40411 -121.62731 24966 ft 377 kts 328°
2026-04-26 02:32 36.42627 -121.64473 24518 ft 377 kts 328°
2026-04-26 02:32 36.44845 -121.66221 24058 ft 377 kts 328°
2026-04-26 02:32 36.47054 -121.67964 23609 ft 377 kts 327°
2026-04-26 02:33 36.49270 -121.69715 23098 ft 376 kts 327°
2026-04-26 02:33 36.51471 -121.71449 22630 ft 374 kts 327°
2026-04-26 02:33 36.53655 -121.73176 22183 ft 371 kts 327°
2026-04-26 02:33 36.55824 -121.74893 21730 ft 368 kts 327°
2026-04-26 02:34 36.57887 -121.76528 21287 ft 365 kts 326°
2026-04-26 02:34 36.60049 -121.78238 20830 ft 362 kts 326°
2026-04-26 02:34 36.62142 -121.79888 20389 ft 359 kts 326°
2026-04-26 02:34 36.64272 -121.81567 19936 ft 356 kts 327°
2026-04-26 02:35 36.66359 -121.83213 19495 ft 353 kts 327°
2026-04-26 02:35 36.68425 -121.84852 19064 ft 351 kts 327°
2026-04-26 02:35 36.70476 -121.86482 18629 ft 348 kts 326°
2026-04-26 02:35 36.72512 -121.88098 18221 ft 346 kts 327°
2026-04-26 02:36 36.74662 -121.89412 17750 ft 344 kts 338°
2026-04-26 02:36 36.76956 -121.90210 17356 ft 340 kts 347°
2026-04-26 02:36 36.79241 -121.90840 16996 ft 335 kts 347°
2026-04-26 02:36 36.81500 -121.91467 16591 ft 331 kts 347°
2026-04-26 02:37 36.83745 -121.92090 16183 ft 328 kts 347°
2026-04-26 02:37 36.85963 -121.92706 15784 ft 325 kts 347°
2026-04-26 02:37 36.88163 -121.93321 15387 ft 323 kts 347°
2026-04-26 02:37 36.90340 -121.93932 14997 ft 320 kts 348°
2026-04-26 02:38 36.92511 -121.94539 14597 ft 318 kts 347°
2026-04-26 02:38 36.94665 -121.95142 14204 ft 316 kts 347°
2026-04-26 02:38 36.96791 -121.95822 13816 ft 314 kts 345°
2026-04-26 02:38 36.98149 -121.96323 13544 ft 313 kts 343°
2026-04-26 02:39 37.00241 -121.97149 13131 ft 310 kts 342°
2026-04-26 02:39 37.02278 -121.97977 12751 ft 307 kts 342°
2026-04-26 02:39 37.04299 -121.98799 12372 ft 304 kts 341°
2026-04-26 02:39 37.06301 -121.99608 11998 ft 302 kts 341°
2026-04-26 02:40 37.08297 -122.00405 11623 ft 300 kts 341°
2026-04-26 02:40 37.10277 -122.01187 11255 ft 298 kts 341°
2026-04-26 02:40 37.12251 -122.01966 10886 ft 296 kts 341°
2026-04-26 02:40 37.14214 -122.02736 10513 ft 295 kts 341°
2026-04-26 02:41 37.16168 -122.03499 10149 ft 294 kts 341°
2026-04-26 02:41 37.18112 -122.04260 9878 ft 290 kts 341°
2026-04-26 02:41 37.20010 -122.05002 9737 ft 281 kts 341°
2026-04-26 02:41 37.21863 -122.05725 9432 ft 277 kts 341°
2026-04-26 02:42 37.23701 -122.06444 9073 ft 276 kts 341°
2026-04-26 02:42 37.25533 -122.07161 8729 ft 275 kts 340°
2026-04-26 02:42 37.27352 -122.07874 8436 ft 273 kts 340°
2026-04-26 02:42 37.29155 -122.08582 8149 ft 271 kts 340°
2026-04-26 02:43 37.32737 -122.09997 7513 ft 269 kts 341°
2026-04-26 02:43 37.34511 -122.10701 7213 ft 267 kts 341°
2026-04-26 02:43 37.36278 -122.11399 6886 ft 266 kts 340°
2026-04-26 02:44 37.38041 -122.12089 6543 ft 266 kts 341°
2026-04-26 02:44 37.39818 -122.12719 6242 ft 264 kts 342°
2026-04-26 02:44 37.41592 -122.13308 5900 ft 264 kts 343°
2026-04-26 02:44 37.43370 -122.13886 5572 ft 264 kts 342°
2026-04-26 02:45 37.45175 -122.14477 4925 ft 275 kts 342°
2026-04-26 02:45 37.47067 -122.15105 4155 ft 289 kts 342°
2026-04-26 02:45 37.49055 -122.15774 3507 ft 297 kts 342°
2026-04-26 02:45 37.50977 -122.16416 3434 ft 272 kts 342°
2026-04-26 02:46 37.52689 -122.17071 3365 ft 244 kts 330°
2026-04-26 02:46 37.53953 -122.18301 3105 ft 219 kts 306°
2026-04-26 02:46 37.54702 -122.19882 2757 ft 202 kts 295°
2026-04-26 02:46 37.55333 -122.21386 2497 ft 187 kts 295°
2026-04-26 02:47 37.55920 -122.22773 2274 ft 172 kts 295°
2026-04-26 02:47 37.56463 -122.24052 2050 ft 160 kts 296°
2026-04-26 02:47 37.56992 -122.25268 1701 ft 157 kts 296°
2026-04-26 02:47 37.57505 -122.26406 1526 ft 140 kts 298°
2026-04-26 02:48 37.58007 -122.27452 1430 ft 134 kts 300°
2026-04-26 02:48 37.58469 -122.28451 1339 ft 131 kts 297°
2026-04-26 02:48 37.58881 -122.29470 1192 ft 130 kts 295°
2026-04-26 02:48 37.59273 -122.30508 1061 ft 131 kts 292°
2026-04-26 02:49 37.59652 -122.31571 952 ft 135 kts 294°
2026-04-26 02:49 37.60114 -122.32626 744 ft 142 kts 296°
2026-04-26 02:49 37.60587 -122.33758 460 ft 147 kts 294°
2026-04-26 02:49 37.61021 -122.34893 228 ft 141 kts 294°
2026-04-26 02:50 37.61461 -122.35952 61 ft 132 kts 295°
2026-04-26 02:50 37.61835 -122.36863 22 ft 96 kts 297°
2026-04-26 02:50 37.62065 -122.37421 23 ft 47 kts 297°
2026-04-26 02:50 37.62192 -122.37724 22 ft 38 kts 295°
2026-04-26 02:51 37.62229 -122.37992 22 ft 10 kts 269°
2026-04-26 02:51 37.62229 -122.38005 22 ft 0 kts 269°
2026-04-26 02:51 37.62229 -122.38020 22 ft 8 kts 269°
2026-04-26 02:51 37.62219 -122.38148 22 ft 12 kts 248°
2026-04-26 02:52 37.62151 -122.38228 22 ft 15 kts 205°
2026-04-26 02:52 37.62053 -122.38284 22 ft 10 kts 205°
2026-04-26 02:52 37.61982 -122.38263 22 ft 12 kts 147°
2026-04-26 02:52 37.61904 -122.38290 24 ft 13 kts 210°
2026-04-26 02:53 37.61841 -122.38333 23 ft 9 kts 215°
2026-04-26 02:53 37.61840 -122.38388 24 ft 2 kts 296°
2026-04-26 02:53 37.61845 -122.38402 23 ft 2 kts 296°
2026-04-26 02:53 37.61846 -122.38404 22 ft 0 kts 296°